When you browse on this site, cookies collect data to enhance your experience and personalize the content and advertising you see.
Visit our Privacy Policy to learn more. By continuing to use the site, you agree to this use of cookies and data.
  • In Austria
  • List of Countries
  • For 7 days
  • Water Temperature
  • Satellite Maps
  • Weather Map
  • News
  • Weather Widgets
  • user-avatar
    Login

    Hourly Weather Cottonwood Heights

    Today, 20 April, Saturday

    Time Temperature Precipitation Wind Pressure Humidity
    00:00 +14°C° 0 mm 3 mps 631 mmHg 28%
    01:00 +13°C° 0 mm 3 mps 631 mmHg 31%
    02:00 +12°C° 0 mm 3 mps 630 mmHg 33%
    03:00 +12°C° 0 mm 3 mps 630 mmHg 35%
    04:00 +12°C° 0 mm 3 mps 630 mmHg 36%
    05:00 +12°C° 0 mm 3 mps 629 mmHg 38%
    06:00 +13°C° 0 mm 3 mps 630 mmHg 37%
    07:00 +14°C° 0 mm 3 mps 630 mmHg 37%
    08:00 +16°C° 0 mm 3 mps 630 mmHg 36%
    09:00 +18°C° 0 mm 4 mps 630 mmHg 31%
    10:00 +20°C° 0 mm 4 mps 631 mmHg 26%
    11:00 +22°C° 0 mm 5 mps 631 mmHg 22%
    12:00 +22°C° 0 mm 5 mps 631 mmHg 22%
    13:00 +22°C° 0 mm 5 mps 630 mmHg 22%
    14:00 +23°C° 0 mm 6 mps 630 mmHg 22%
    15:00 +22°C° 0 mm 5 mps 630 mmHg 23%
    16:00 +22°C° 0 mm 4 mps 629 mmHg 25%
    17:00 +21°C° 0 mm 4 mps 629 mmHg 26%
    18:00 +20°C° 0.1 mm 3 mps 628 mmHg 32%
    19:00 +18°C° 0.1 mm 2 mps 628 mmHg 39%
    20:00 +16°C° 0.1 mm 1 mps 628 mmHg 45%
    21:00 +15°C° 0.2 mm 1 mps 628 mmHg 49%
    22:00 +14°C° 0.2 mm 2 mps 628 mmHg 54%
    23:00 +13°C° 0.2 mm 2 mps 628 mmHg 58%

    Tomorrow, 21 April, Sunday

    Time Temperature Precipitation Wind Pressure Humidity
    00:00 +13°C° 0.1 mm 1 mps 627 mmHg 65%
    01:00 +12°C° 0.1 mm 1 mps 627 mmHg 71%
    02:00 +11°C° 0.1 mm 1 mps 627 mmHg 78%
    03:00 +11°C° 0.1 mm 1 mps 627 mmHg 78%
    04:00 +10°C° 0.1 mm 1 mps 627 mmHg 78%
    05:00 +9°C° 0.1 mm 0 mps 627 mmHg 78%
    06:00 +11°C° 0.1 mm 1 mps 627 mmHg 73%
    07:00 +12°C° 0.1 mm 1 mps 628 mmHg 69%
    08:00 +12°C° 0.1 mm 1 mps 629 mmHg 64%
    09:00 +13°C° 0.4 mm 2 mps 629 mmHg 64%
    10:00 +12°C° 0.4 mm 3 mps 630 mmHg 65%
    11:00 +13°C° 0.4 mm 4 mps 630 mmHg 66%
    12:00 +11°C° 0.5 mm 3 mps 630 mmHg 71%
    13:00 +10°C° 0.5 mm 3 mps 630 mmHg 76%
    14:00 +9°C° 0.5 mm 3 mps 629 mmHg 81%
    15:00 +9°C° 0.1 mm 3 mps 630 mmHg 79%
    16:00 +8°C° 0.1 mm 2 mps 630 mmHg 78%
    17:00 +8°C° 0.1 mm 2 mps 630 mmHg 76%
    18:00 +8°C° 0 mm 2 mps 630 mmHg 77%
    19:00 +9°C° 0 mm 1 mps 630 mmHg 79%
    20:00 +9°C° 0 mm 1 mps 631 mmHg 80%
    21:00 +8°C° 0 mm 1 mps 631 mmHg 81%
    22:00 +8°C° 0 mm 1 mps 631 mmHg 81%
    23:00 +7°C° 0 mm 0 mps 632 mmHg 82%

    Day after tomorrow, 22 April, Monday

    Time Temperature Precipitation Wind Pressure Humidity
    00:00 +7°C° 0 mm 0 mps 632 mmHg 82%
    01:00 +8°C° 0 mm 1 mps 632 mmHg 82%
    02:00 +8°C° 0 mm 1 mps 632 mmHg 82%
    03:00 +7°C° 0.1 mm 1 mps 632 mmHg 83%
    04:00 +7°C° 0.1 mm 1 mps 632 mmHg 84%
    05:00 +7°C° 0.1 mm 1 mps 632 mmHg 85%
    06:00 +8°C° 0.1 mm 1 mps 633 mmHg 83%
    07:00 +8°C° 0.1 mm 1 mps 633 mmHg 82%
    08:00 +8°C° 0.1 mm 1 mps 634 mmHg 80%
    09:00 +8°C° 0.2 mm 2 mps 634 mmHg 79%
    10:00 +9°C° 0.2 mm 2 mps 634 mmHg 77%
    11:00 +9°C° 0.2 mm 3 mps 635 mmHg 76%
    12:00 +10°C° 0.3 mm 3 mps 635 mmHg 75%
    13:00 +10°C° 0.3 mm 3 mps 635 mmHg 74%
    14:00 +11°C° 0.3 mm 3 mps 635 mmHg 73%
    15:00 +11°C° 0.1 mm 3 mps 635 mmHg 71%
    16:00 +11°C° 0.1 mm 3 mps 635 mmHg 70%
    17:00 +12°C° 0.1 mm 2 mps 635 mmHg 69%
    18:00 +10°C° 0 mm 2 mps 635 mmHg 73%
    19:00 +9°C° 0 mm 2 mps 635 mmHg 76%
    20:00 +9°C° 0 mm 1 mps 635 mmHg 79%
    21:00 +9°C° 0 mm 1 mps 635 mmHg 79%
    22:00 +9°C° 0 mm 1 mps 635 mmHg 80%
    23:00 +8°C° 0 mm 1 mps 635 mmHg 80%

    23 April, Tuesday

    Time Temperature Precipitation Wind Pressure Humidity
    00:00 +8°C° 0 mm 1 mps 635 mmHg 79%
    01:00 +8°C° 0 mm 1 mps 635 mmHg 78%
    02:00 +7°C° 0 mm 1 mps 634 mmHg 77%
    03:00 +7°C° 0 mm 1 mps 634 mmHg 76%
    04:00 +7°C° 0 mm 1 mps 634 mmHg 76%
    05:00 +7°C° 0 mm 1 mps 634 mmHg 75%
    06:00 +8°C° 0 mm 1 mps 635 mmHg 71%
    07:00 +10°C° 0 mm 1 mps 636 mmHg 66%
    08:00 +11°C° 0 mm 1 mps 637 mmHg 62%
    09:00 +13°C° 0 mm 2 mps 637 mmHg 58%
    10:00 +14°C° 0 mm 2 mps 638 mmHg 55%
    11:00 +16°C° 0 mm 3 mps 638 mmHg 52%
    12:00 +17°C° 0 mm 3 mps 638 mmHg 50%
    13:00 +17°C° 0 mm 3 mps 637 mmHg 48%
    14:00 +18°C° 0 mm 3 mps 637 mmHg 46%
    15:00 +18°C° 0 mm 3 mps 637 mmHg 47%
    16:00 +17°C° 0 mm 3 mps 636 mmHg 48%
    17:00 +17°C° 0 mm 3 mps 636 mmHg 49%
    18:00 +15°C° 0 mm 2 mps 635 mmHg 55%
    19:00 +14°C° 0 mm 1 mps 635 mmHg 60%
    20:00 +12°C° 0 mm 1 mps 635 mmHg 65%
    21:00 +12°C° 0 mm 1 mps 635 mmHg 67%
    22:00 +11°C° 0 mm 1 mps 635 mmHg 69%
    23:00 +11°C° 0 mm 1 mps 635 mmHg 70%

    24 April, Wednesday

    Time Temperature Precipitation Wind Pressure Humidity
    00:00 +10°C° 0 mm 1 mps 635 mmHg 72%
    01:00 +10°C° 0 mm 1 mps 635 mmHg 73%
    02:00 +10°C° 0 mm 1 mps 634 mmHg 75%
    03:00 +10°C° 0 mm 1 mps 634 mmHg 75%
    04:00 +9°C° 0 mm 1 mps 634 mmHg 75%
    05:00 +9°C° 0 mm 1 mps 635 mmHg 75%
    06:00 +11°C° 0 mm 1 mps 635 mmHg 69%
    07:00 +12°C° 0 mm 1 mps 636 mmHg 64%
    08:00 +14°C° 0 mm 1 mps 637 mmHg 58%
    09:00 +15°C° 0 mm 1 mps 637 mmHg 53%
    10:00 +17°C° 0 mm 2 mps 637 mmHg 48%
    11:00 +18°C° 0 mm 2 mps 638 mmHg 43%
    12:00 +19°C° 0 mm 2 mps 637 mmHg 42%
    13:00 +19°C° 0 mm 3 mps 637 mmHg 40%
    14:00 +20°C° 0 mm 3 mps 637 mmHg 39%
    15:00 +20°C° 0 mm 3 mps 637 mmHg 39%
    16:00 +20°C° 0 mm 3 mps 636 mmHg 39%
    17:00 +19°C° 0 mm 3 mps 636 mmHg 39%
    18:00 +17°C° 0 mm 2 mps 636 mmHg 43%
    19:00 +16°C° 0 mm 1 mps 635 mmHg 47%
    20:00 +13°C° 0 mm 0 mps 635 mmHg 51%
    21:00 +14°C° 0 mm 1 mps 635 mmHg 52%
    22:00 +13°C° 0 mm 1 mps 635 mmHg 52%
    23:00 +13°C° 0 mm 1 mps 636 mmHg 53%

    25 April, Thursday

    Time Temperature Precipitation Wind Pressure Humidity
    00:00 +12°C° 0 mm 1 mps 635 mmHg 54%
    01:00 +12°C° 0 mm 1 mps 635 mmHg 55%
    02:00 +12°C° 0 mm 1 mps 635 mmHg 56%
    03:00 +12°C° 0 mm 1 mps 635 mmHg 57%
    04:00 +11°C° 0 mm 1 mps 635 mmHg 58%
    05:00 +10°C° 0 mm 2 mps 635 mmHg 59%
    06:00 +13°C° 0 mm 1 mps 636 mmHg 56%
    07:00 +15°C° 0 mm 1 mps 636 mmHg 52%
    08:00 +16°C° 0 mm 1 mps 637 mmHg 49%
    09:00 +19°C° 0 mm 1 mps 638 mmHg 46%
    10:00 +21°C° 0 mm 1 mps 638 mmHg 42%
    11:00 +22°C° 0 mm 1 mps 639 mmHg 39%
    12:00 +23°C° 0 mm 1 mps 638 mmHg 37%
    13:00 +24°C° 0 mm 2 mps 638 mmHg 36%
    14:00 +24°C° 0 mm 2 mps 638 mmHg 34%
    15:00 +24°C° 0 mm 2 mps 638 mmHg 34%
    16:00 +24°C° 0 mm 2 mps 637 mmHg 34%
    17:00 +24°C° 0 mm 2 mps 637 mmHg 35%
    18:00 +22°C° 0 mm 1 mps 636 mmHg 39%
    19:00 +20°C° 0 mm 1 mps 636 mmHg 44%
    20:00 +16°C° 0 mm 0 mps 635 mmHg 49%
    21:00 +16°C° 0 mm 1 mps 635 mmHg 49%
    22:00 +16°C° 0 mm 2 mps 635 mmHg 50%
    23:00 +16°C° 0 mm 2 mps 635 mmHg 51%
    Show more